Total_Precipitation_Accumulation
2.22 2.41 2.38 2.27 2.17 2.26 2.19 2.04 1.84 1.85 1.81 1.64 1.48 1.50 1.52 1.51 1.48 1.57 1.69 1.58 1.60 1.83 2.27 2.58 2.71 2.64 2.59 2.57 2.50 2.38 2.23 2.11 2.01 1.84 1.68 1.48 1.35 1.29 1.29 1.33 1.35 1.32 1.32
2.75 2.91 2.87 2.69 2.47 2.47 2.42 2.34 2.28 2.34 2.26 2.19 1.99 1.86 1.77 1.83 1.77 1.76 1.92 1.96 1.81 1.82 2.23 2.73 2.99 3.01 2.93 2.90 2.71 2.48 2.39 2.36 2.31 2.18 2.04 1.81 1.59 1.49 1.44 1.40 1.44 1.41 1.37
3.22 3.29 3.31 3.03 2.80 2.76 2.88 2.83 2.76 2.73 2.48 2.39 2.30 2.21 2.07 1.95 1.93 1.95 2.10 2.35 2.20 2.17 2.30 2.42 2.59 2.77 2.95 3.14 3.18 2.98 2.76 2.60 2.52 2.42 2.32 2.19 2.00 1.82 1.71 1.66 1.62 1.56 1.49
3.34 3.42 3.43 3.30 3.15 3.08 3.30 3.42 3.35 3.26 3.08 2.99 2.81 2.54 2.27 2.17 2.17 2.28 2.36 2.51 2.69 2.59 2.58 2.45 2.32 2.45 2.78 3.07 3.25 3.31 3.14 2.87 2.68 2.62 2.56 2.48 2.29 2.14 1.97 1.89 1.88 1.78 1.64
3.70 3.73 3.65 3.64 3.65 3.71 3.70 3.50 3.59 3.45 3.44 3.34 2.92 2.68 2.36 2.26 2.36 2.35 2.44 2.47 2.63 2.63 2.64 2.47 2.37 2.37 2.57 2.92 3.10 3.36 3.40 3.28 3.12 2.95 2.83 2.76 2.62 2.42 2.22 2.09 2.00 1.91 1.76
4.12 4.31 4.28 4.19 4.18 4.14 3.94 3.86 3.83 3.64 3.47 3.34 2.90 2.64 2.39 2.25 2.23 2.30 2.30 2.27 2.26 2.25 2.26 2.34 2.54 2.41 2.50 2.63 2.69 2.94 3.24 3.42 3.31 3.15 3.04 2.97 2.80 2.55 2.30 2.17 2.11 2.06 1.99
4.90 4.94 4.75 4.52 4.38 4.37 4.28 4.23 4.03 3.79 3.52 3.40 3.29 2.93 2.41 2.13 2.14 2.11 2.11 2.11 2.07 2.08 2.16 2.24 2.27 2.24 2.23 2.31 2.30 2.44 2.72 3.06 3.21 3.25 3.25 3.14 2.99 2.79 2.53 2.32 2.23 2.20 2.14
5.10 5.02 5.05 4.95 4.75 4.56 4.36 4.17 4.09 3.90 3.56 3.45 3.40 3.26 2.77 2.35 1.97 1.75 1.77 1.78 1.80 1.94 1.94 1.92 2.02 2.11 2.11 2.17 2.17 2.33 2.49 2.68 2.94 3.09 3.05 2.96 2.87 2.86 2.81 2.67 2.51 2.39 2.31
5.27 5.11 4.98 4.75 4.60 4.47 4.30 4.10 3.92 3.81 3.58 3.44 3.38 3.46 3.15 2.69 2.18 1.82 1.63 1.57 1.55 1.68 1.73 1.76 1.78 1.86 1.96 2.05 2.06 2.19 2.30 2.32 2.54 2.77 2.89 2.85 2.77 2.72 2.70 2.69 2.66 2.61 2.53
4.90 4.66 4.53 4.41 4.24 3.94 3.70 3.54 3.45 3.30 3.18 3.04 3.07 3.03 2.88 2.69 2.64 2.38 2.06 1.88 1.79 1.77 1.78 1.72 1.72 1.81 1.84 1.97 2.13 2.16 2.13 2.12 2.28 2.42 2.58 2.70 2.70 2.72 2.73 2.75 2.72 2.70 2.69
4.27 4.01 3.87 3.70 3.49 3.14 2.79 2.65 2.72 2.80 2.81 2.74 2.74 2.77 2.76 2.60 2.53 2.48 2.31 2.13 2.01 1.89 1.84 1.89 1.90 1.89 1.86 1.86 1.91 2.05 2.03 1.88 1.97 2.07 2.25 2.45 2.53 2.59 2.66 2.69 2.72 2.72 2.73
3.67 3.32 3.01 2.74 2.51 2.35 2.16 2.11 2.13 2.21 2.40 2.52 2.65 2.68 2.67 2.56 2.47 2.48 2.37 2.29 2.22 2.07 1.92 1.82 1.84 1.85 1.83 1.83 1.80 1.96 1.77 1.69 1.66 1.71 1.84 1.99 2.12 2.21 2.28 2.42 2.59 2.69 2.81
2.91 2.63 2.35 2.22 2.07 1.96 1.90 1.88 1.84 1.80 1.91 2.09 2.21 2.33 2.42 2.41 2.40 2.46 2.54 2.51 2.33 2.17 2.06 1.90 1.77 1.74 1.76 1.79 1.79 1.84 1.65 1.56 1.49 1.46 1.43 1.50 1.56 1.70 1.87 2.03 2.19 2.36 2.49
2.19 1.95 1.75 1.63 1.61 1.65 1.59 1.62 1.61 1.61 1.63 1.70 1.78 1.96 2.10 2.14 2.18 2.19 2.21 2.31 2.37 2.24 2.03 1.88 1.80 1.70 1.60 1.53 1.56 1.55 1.35 1.37 1.26 1.22 1.21 1.23 1.26 1.29 1.39 1.50 1.57 1.65 1.72
1.59 1.43 1.33 1.33 1.31 1.33 1.38 1.37 1.33 1.36 1.45 1.50 1.51 1.59 1.69 1.73 1.81 1.88 1.95 2.01 2.16 2.19 2.02 1.78 1.70 1.58 1.42 1.28 1.34 1.17 1.12 1.16 1.05 0.98 0.94 0.96 0.98 1.02 1.07 1.14 1.23 1.27 1.29
1.25 1.24 1.17 1.11 1.04 1.03 1.04 1.08 1.11 1.15 1.20 1.28 1.31 1.34 1.39 1.41 1.49 1.58 1.71 1.80 1.83 1.89 1.87 1.63 1.43 1.32 1.24 1.09 1.14 1.00 1.02 1.05 0.91 0.89 0.85 0.85 0.88 0.94 0.97 1.02 1.05 1.08 1.10
1.01 0.97 0.88 0.82 0.79 0.82 0.88 0.93 0.96 1.01 1.05 1.09 1.17 1.21 1.24 1.22 1.28 1.32 1.34 1.40 1.53 1.61 1.64 1.47 1.30 1.22 1.17 1.07 1.04 1.03 1.00 0.94 0.86 0.88 0.83 0.81 0.83 0.84 0.85 0.87 0.88 0.92 0.99
0.84 0.76 0.66 0.64 0.64 0.68 0.72 0.75 0.78 0.81 0.91 0.94 0.96 0.98 1.01 1.02 1.07 1.10 1.13 1.15 1.25 1.36 1.42 1.43 1.33 1.24 1.19 1.11 1.05 1.06 0.89 0.75 0.75 0.79 0.73 0.67 0.67 0.67 0.69 0.71 0.73 0.74 0.76
0.77 0.68 0.59 0.57 0.56 0.56 0.58 0.60 0.64 0.64 0.70 0.77 0.81 0.84 0.86 0.88 0.87 0.84 0.89 0.97 1.05 1.13 1.28 1.30 1.23 1.14 1.05 1.00 1.05 0.98 0.89 0.95 0.73 0.68 0.64 0.58 0.56 0.55 0.55 0.56 0.58 0.59 0.59
0.63 0.60 0.56 0.52 0.51 0.50 0.50 0.49 0.46 0.50 0.55 0.59 0.62 0.66 0.71 0.76 0.77 0.79 0.80 0.92 0.98 1.10 1.19 1.20 1.14 1.08 1.01 0.95 1.06 1.08 1.04 0.98 0.82 0.60 0.60 0.53 0.52 0.50 0.50 0.50 0.50 0.50 0.49
0.57 0.53 0.50 0.49 0.43 0.39 0.35 0.35 0.37 0.43 0.52 0.53 0.55 0.55 0.55 0.61 0.71 0.72 0.72 0.80 0.90 1.04 1.06 1.07 1.07 1.05 1.00 1.01 1.04 1.00 1.03 0.99 0.87 0.72 0.74 0.63 0.61 0.64 0.66 0.61 0.55 0.53 0.48
0.52 0.49 0.47 0.44 0.39 0.30 0.30 0.30 0.31 0.39 0.49 0.53 0.52 0.50 0.47 0.45 0.51 0.58 0.60 0.67 0.79 0.89 0.96 1.01 1.03 1.03 1.01 1.06 1.09 1.05 1.08 1.10 1.06 0.82 0.84 0.77 0.69 0.77 0.76 0.71 0.62 0.51 0.45
0.55 0.50 0.46 0.45 0.47 0.40 0.26 0.23 0.25 0.35 0.50 0.50 0.50 0.54 0.49 0.45 0.51 0.57 0.58 0.56 0.60 0.63 0.73 0.90 1.02 1.06 1.10 1.20 1.29 1.24 1.21 1.20 1.17 0.94 0.98 0.94 0.81 0.88 0.72 0.63 0.66 0.56 0.48
0.56 0.53 0.49 0.50 0.54 0.43 0.27 0.19 0.22 0.34 0.44 0.41 0.43 0.51 0.59 0.60 0.53 0.52 0.56 0.60 0.64 0.65 0.68 0.72 0.92 0.99 0.98 1.08 1.20 1.24 1.24 1.19 1.16 1.11 1.14 1.14 0.87 0.83 0.74 0.93 0.92 0.76 0.61
0.58 0.57 0.54 0.58 0.60 0.48 0.32 0.24 0.28 0.37 0.43 0.43 0.45 0.44 0.45 0.52 0.49 0.52 0.60 0.74 0.77 0.80 0.65 0.69 0.79 0.85 0.87 0.92 0.99 1.10 1.24 1.34 1.31 1.19 1.12 1.15 1.01 0.89 0.90 1.12 1.08 1.03 0.84
0.55 0.50 0.53 0.61 0.60 0.52 0.36 0.28 0.30 0.35 0.43 0.52 0.58 0.57 0.52 0.49 0.47 0.52 0.64 0.78 0.86 0.85 0.86 1.01 1.12 1.12 1.05 1.03 0.99 1.10 1.31 1.39 1.37 1.33 1.16 1.17 1.19 1.12 1.15 1.18 1.23 1.18 1.09